TimeMST,TemperatureF,Dew PointF,Humidity,Sea Level PressureIn,VisibilityMPH,Wind Direction,Wind SpeedMPH,Gust SpeedMPH,PrecipitationIn,Events,Conditions,WindDirDegrees,DateUTC
1:53 AM,-9.0,-14.1,79,30.43,10.0,WNW,12.7,-,N/A,,Clear,300,2013-01-15 08:53:00
2:53 AM,-9.9,-15.0,78,30.44,10.0,NNW,10.4,-,N/A,,Clear,340,2013-01-15 09:53:00
3:53 AM,-9.9,-15.0,78,30.48,10.0,NNW,5.8,-,N/A,,Clear,330,2013-01-15 10:53:00
5:53 AM,-6.0,-11.0,79,30.51,10.0,NW,11.5,-,N/A,,Clear,320,2013-01-15 12:53:00
6:53 AM,-7.1,-11.0,83,30.54,10.0,West,10.4,-,N/A,,Clear,280,2013-01-15 13:53:00
7:53 AM,-5.1,-9.0,83,30.58,10.0,WNW,12.7,-,N/A,,Clear,300,2013-01-15 14:53:00
8:53 AM,-2.0,-8.0,76,30.57,10.0,West,12.7,-,N/A,,Clear,280,2013-01-15 15:53:00
9:53 AM,3.0,-4.0,73,30.58,10.0,WNW,9.2,-,N/A,,Clear,300,2013-01-15 16:53:00
10:53 AM,6.1,-0.9,73,30.56,10.0,WNW,8.1,-,N/A,,Clear,300,2013-01-15 17:53:00
11:53 AM,10.0,1.0,67,30.51,10.0,WNW,12.7,-,N/A,,Clear,290,2013-01-15 18:53:00
12:53 PM,14.0,5.0,67,30.47,10.0,WNW,15.0,-,N/A,,Clear,290,2013-01-15 19:53:00
1:53 PM,17.1,7.0,65,30.46,10.0,WNW,11.5,-,N/A,,Clear,300,2013-01-15 20:53:00
2:53 PM,17.1,8.1,68,30.48,10.0,West,15.0,-,N/A,,Clear,280,2013-01-15 21:53:00
3:53 PM,15.1,7.0,70,30.53,10.0,WNW,16.1,-,N/A,,Clear,290,2013-01-15 22:53:00
4:53 PM,14.0,7.0,74,30.55,10.0,WNW,17.3,-,N/A,,Clear,300,2013-01-15 23:53:00
5:53 PM,12.0,6.1,77,30.58,10.0,WNW,13.8,-,N/A,,Clear,290,2013-01-16 00:53:00
6:53 PM,10.9,6.1,81,30.59,10.0,WNW,12.7,-,N/A,,Clear,300,2013-01-16 01:53:00
7:53 PM,7.0,3.0,84,30.62,10.0,North,5.8,-,N/A,,Clear,360,2013-01-16 02:53:00
8:53 PM,8.1,3.9,83,30.61,10.0,NNW,10.4,-,N/A,,Clear,330,2013-01-16 03:53:00
9:18 PM,6.8,3.2,85,30.36,10.0,NNW,12.7,-,N/A,,Mostly Cloudy,330,2013-01-16 04:18:00
9:26 PM,6.8,1.4,79,30.36,9.0,NNW,13.8,-,N/A,,Mostly Cloudy,330,2013-01-16 04:26:00
9:36 PM,6.8,1.4,79,30.36,10.0,NW,16.1,-,N/A,,Scattered Clouds,320,2013-01-16 04:36:00
9:53 PM,7.0,3.0,84,30.59,10.0,NW,16.1,-,N/A,,Clear,320,2013-01-16 04:53:00
10:53 PM,8.1,3.9,83,30.57,10.0,NNW,19.6,25.3,N/A,,Clear,340,2013-01-16 05:53:00
11:53 PM,8.1,3.9,83,30.54,10.0,NW,17.3,-,N/A,,Clear,310,2013-01-16 06:53:00